This demonstration page uses our WeatherBlox Daily Observations layout. Learn more.

Hourly Observations for March 26, 2019

Temp ( °F °C ) Dew Point ( °F °C ) Humidity (%) Winds ( mph kmh ) Pressure ( in mb ) Visibility ( mi km ) Precip ( " mm )
12:15 am 00:15 Mostly Cloudy 39 4.1 39 4.1 100 100 SE 5 7 30.36 1028 7 11.26538 0 0
12:35 am 00:35 Mostly Cloudy 40 4.2 40 4.2 100 100 SSE 5 7 30.36 1028 7 11.26538 0 0
12:55 am 00:55 Cloudy 40 4.5 40 4.5 100 100 SSE 5 7 30.35 1028 10 16.0934 0 0
1:15 am 01:15 Cloudy 42 5.3 41 5.2 99 99 SSE 5 7 30.35 1028 10 16.0934 0 0
1:35 am 01:35 Cloudy 41 5.1 41 5 99 99 S 7 11 30.35 1028 10 16.0934 0 0
1:55 am 01:55 Cloudy 41 5.2 41 4.9 98 98 S 7 11 30.34 1027 10 16.0934 0 0
2:15 am 02:15 Partly Cloudy 40 4.6 40 4.3 98 98 S 7 11 30.34 1027 7 11.26538 0 0
2:35 am 02:35 Mostly Cloudy 40 4.7 40 4.6 99 99 S 8 13 30.34 1027 7 11.26538 0 0
2:55 am 02:55 Cloudy 41 5 41 5 100 100 S 8 13 30.34 1027 10 16.0934 0 0
3:15 am 03:15 Mostly Cloudy 41 4.8 40 4.5 98 98 S 8 13 30.33 1027 10 16.0934 0 0
3:35 am 03:35 Partly Cloudy 40 4.5 40 4.2 98 98 S 7 11 30.33 1027 7 11.26538 0 0
3:55 am 03:55 Clear 39 3.8 39 3.7 99 99 SSE 7 11 30.33 1027 7 11.26538 0 0
4:15 am 04:15 Clear 39 3.7 39 3.7 100 100 SSE 7 11 30.33 1027 7 11.26538 0 0
4:35 am 04:35 Clear with Mist and Fog 37 3 37 3 100 100 S 8 13 30.34 1027 5 8.0467 0 0
4:55 am 04:55 Clear with Mist and Fog 37 2.8 37 2.8 100 100 S 6 9 30.34 1027 5 8.0467 0 0
5:15 am 05:15 Clear 37 3 37 3 100 100 S 8 13 30.33 1027 7 11.26538 0 0
5:35 am 05:35 Clear with Mist and Fog 37 3 37 3 100 100 S 8 13 30.32 1027 5 8.0467 0 0
5:55 am 05:55 Clear 37 3 37 3 100 100 S 7 11 30.32 1027 7 11.26538 0 0
6:15 am 06:15 Clear with Mist and Fog 37 2.8 37 2.8 100 100 S 6 9 30.33 1027 5 8.0467 0 0
6:35 am 06:35 Clear with Mist and Fog 36 2.3 36 2.3 100 100 S 5 7 30.32 1027 5 8.0467 0 0
6:55 am 06:55 Clear with Mist and Fog 36 2.2 36 2.2 100 100 SSW 6 9 30.32 1027 5 8.0467 0 0
7:15 am 07:15 Clear with Mist and Fog 36 2 36 2 100 100 S 6 9 30.33 1027 5 8.0467 0 0
7:35 am 07:35 Sunny with Mist and Fog 35 1.6 35 1.6 100 100 S 6 9 30.33 1027 4 6.43736 0 0
7:55 am 07:55 Sunny with Mist and Fog 35 1.7 35 1.7 100 100 SSW 5 7 30.34 1027 2.5 4.02335 0 0
8:15 am 08:15 Sunny with Mist and Fog 35 1.7 35 1.7 100 100 SW 5 7 30.34 1027 2.5 4.02335 0 0
8:35 am 08:35 Sunny with Mist and Fog 37 2.5 37 2.5 100 100 SW 6 9 30.34 1027 3 4.82802 0 0
8:55 am 08:55 Sunny with Mist and Fog 38 3.4 38 3.4 100 100 SW 5 7 30.33 1027 4 6.43736 0 0
9:15 am 09:15 Sunny 40 4.5 40 4.5 100 100 SW 7 11 30.32 1027 7 11.26538 0 0
9:35 am 09:35 Sunny 41 5.1 40 4.7 97 97 SW 6 9 30.32 1027 10 16.0934 0 0
9:55 am 09:55 Sunny 44 6.4 42 5.7 95 95 SW 8 13 30.31 1026 10 16.0934 0 0
10:15 am 10:15 Sunny 45 7 43 6.1 94 94 SW 6 9 30.29 1026 10 16.0934 0 0
10:35 am 10:35 Sunny 46 7.6 43 6.3 92 92 SW 7 11 30.28 1026 10 16.0934 0 0
10:55 am 10:55 Sunny 47 8.4 44 6.8 90 90 SW 6 9 30.28 1025 10 16.0934 0 0
11:15 am 11:15 Sunny 49 9.4 46 7.5 88 88 SW 5 7 30.27 1025 10 16.0934 0 0
11:35 am 11:35 Sunny 50 10.1 46 7.6 85 85 SW 8 13 30.26 1025 10 16.0934 0 0
11:55 am 11:55 Sunny 52 10.9 46 7.9 82 82 SSW 6 9 30.25 1025 10 16.0934 0 0
12:15 pm 12:15 Sunny 53 11.7 47 8.1 79 79 SW 5 7 30.24 1024 10 16.0934 0 0
12:35 pm 12:35 Sunny 56 13.5 47 8.4 71 71 SSW 10 17 30.22 1023 10 16.0934 0 0
12:55 pm 12:55 Sunny 58 14.6 47 8.5 67 67 SW 8 13 30.19 1022 10 16.0934 0 0
1:15 pm 13:15 Sunny 60 15.3 47 8.4 64 64 SW 10 17 30.18 1022 10 16.0934 0 0
1:35 pm 13:35 Sunny 62 16.4 47 8.3 59 59 SW 10 17 30.16 1021 10 16.0934 0 0
1:55 pm 13:55 Sunny 63 17.1 47 8.4 57 57 SW 15 24 30.14 1021 10 16.0934 0 0
2:15 pm 14:15 Sunny 63 17.1 46 7.9 55 55 SW 14 22 30.13 1020 10 16.0934 0 0
2:35 pm 14:35 Sunny 64 17.6 46 7.7 52 52 SW 10 17 30.12 1020 10 16.0934 0 0
2:55 pm 14:55 Sunny 65 18.2 44 6.9 48 48 SW 14 22 30.1 1019 10 16.0934 0 0
3:15 pm 15:15 Sunny 66 19.1 46 7.6 47 47 SSW 16 26 30.08 1019 10 16.0934 0 0
3:35 pm 15:35 Sunny 66 18.9 45 7.1 46 46 SSW 16 26 30.07 1018 10 16.0934 0 0
3:55 pm 15:55 Partly Cloudy 67 19.4 42 5.8 41 41 SSW 18 30 30.05 1018 10 16.0934 0 0
4:15 pm 16:15 Sunny 67 19.6 42 5.4 40 40 SSW 18 30 30.05 1018 10 16.0934 0 0
4:35 pm 16:35 Partly Cloudy 68 20 43 6 40 40 SSW 18 30 30.04 1017 10 16.0934 0 0
4:55 pm 16:55 Partly Cloudy 67 19.7 42 5.5 40 40 SSW 14 22 30.03 1017 10 16.0934 0 0
5:15 pm 17:15 Sunny 66 18.9 43 6.1 43 43 S 18 30 30.04 1017 10 16.0934 0 0
5:35 pm 17:35 Partly Cloudy 65 18.6 44 6.6 46 46 SSW 16 26 30.03 1017 10 16.0934 0 0
5:55 pm 17:55 Partly Cloudy 66 19 44 6.8 45 45 S 16 26 30.02 1016 10 16.0934 0 0
6:15 pm 18:15 Sunny 65 18.4 44 6.9 47 47 SSW 15 24 30.02 1017 10 16.0934 0 0
6:35 pm 18:35 Sunny 64 17.8 45 7.1 50 50 SSW 16 26 30.03 1017 10 16.0934 0 0
6:55 pm 18:55 Sunny 63 17.2 46 7.5 53 53 S 13 20 30.02 1017 10 16.0934 0 0
7:15 pm 19:15 Partly Cloudy 62 16.6 46 8 57 57 S 10 17 30.03 1017 10 16.0934 0 0
7:35 pm 19:35 Sunny 61 16.2 47 8.2 59 59 S 12 19 30.03 1017 10 16.0934 0 0
7:55 pm 19:55 Sunny 59 15.1 47 8.3 64 64 S 12 19 30.03 1017 10 16.0934 0 0
8:15 pm 20:15 Clear 57 13.9 47 8.3 69 69 S 9 15 30.04 1017 10 16.0934 0 0
8:35 pm 20:35 Clear 55 12.7 47 8.2 74 74 S 9 15 30.05 1018 10 16.0934 0 0
8:55 pm 20:55 Clear 54 12.1 46 7.9 76 76 S 9 15 30.05 1018 10 16.0934 0 0
9:15 pm 21:15 Clear 53 11.7 46 7.8 77 77 S 10 17 30.06 1018 10 16.0934 0 0
9:35 pm 21:35 Clear 53 11.7 46 7.8 77 77 S 10 17 30.06 1018 10 16.0934 0 0
9:55 pm 21:55 Clear 53 11.4 46 7.7 78 78 S 9 15 30.06 1018 10 16.0934 0 0
10:15 pm 22:15 Clear 53 11.6 46 7.5 76 76 S 13 20 30.06 1018 10 16.0934 0 0
10:35 pm 22:35 Clear 53 11.5 46 7.5 77 77 S 10 17 30.06 1018 10 16.0934 0 0
10:55 pm 22:55 Clear 51 10.7 45 7.4 80 80 S 12 19 30.08 1019 10 16.0934 0 0
11:15 pm 23:15 Clear 51 10.5 45 7.2 80 80 S 10 17 30.08 1019 10 16.0934 0 0
11:35 pm 23:35 Clear 50 10.1 45 7 81 81 S 12 19 30.07 1018 10 16.0934 0 0
11:55 pm 23:55 Clear 51 10.5 45 7 79 79 S 15 24 30.07 1018 10 16.0934 0 0

Powered by AerisWeather